Regional Weather Roundup
Issued by NWS Goodland, KS

Home | Current Version | Previous Version | Graphics & Text | Print | Product List | Glossary On
Versions: 1 2 3 4 5 6 7 8 9 10 11 12 13 14 15 16 17 18 19 20 21 22 23 24 25 26 27 28 29 30 31 32 33 34 35 36 37 38 39 40 41 42 43 44 45 46 47 48 49 50
000
ASUS43 KGLD 200008
RWRGLD

GOODLAND FORECAST AREA HOURLY WEATHER ROUNDUP
NATIONAL WEATHER SERVICE GOODLAND KS
500 PM MST SUN NOV 19 2017

...OFFICIAL OBSERVATIONS...

CITY           SKY/WX    TMP DP  RH WIND       PRES   REMARKS
GOODLAND KS    CLOUDY    45  14  28 S9        29.97F
HILL CITY KS   CLOUDY    49  25  39 SW8       29.99F
IMPERIAL NEB   CLOUDY    43  21  41 S3        29.93F
MCCOOK NEB     CLOUDY    50  23  34 S5        29.95F
AKRON CO       CLOUDY    45  14  28 SW5       29.96F
BURLINGTON CO  CLOUDY    43  12  28 S9        29.99F
LIMON CO       CLOUDY    42  11  28 CALM      29.99F
$$

...UNOFFICIAL OBSERVATIONS...

CITY           SKY/WX    TMP DP  RH WIND       PRES   REMARKS
COLBY KS       CLEAR     46  27  46 S7        29.98F
LENORA KS        N/A     48  32  54 S8          N/A
NORTON KS      CLEAR     43  18  36 S5        29.96
SHARON SPRINGS   N/A     42  18  38 S9          N/A
TRENTON NEB      N/A     49  32  52 CALM        N/A
KIT CARSON CO    N/A     45  16  31 MISG        N/A
YUMA CO        FAIR      43  14  31 CALM      29.95F
$$




USA.gov is the U.S. government's official web portal to all federal, state and local government web resources and services.